Weather in Kardonikskaya

Russia / Karachay-Cherkess Republic     43°51′45″N   41°42′59″E
temp.,
°C
wind,
m/s
gust,
m/s
humid.,
%
clouds,
%
prec.,
mm/h
press.,
hPa
HPBL,
m
18 april, sun
sun1800:00+4ese1196100 0.0 102120
03:00+5s1190100 0.0 101914
06:00+6sw1191100 0.0 101813
09:00+10n1179100 0.1 1016124
12:00+17nw365193 0.4 10131367
15:00+17w354829 1.5 10131547
18:00+13w1173100 1.6 101579
21:00+9s2278100 1.8 101745
19 april, mon
mon1900:00+10ssw2276100 0.0 101664
03:00+9s227777 0.0 101630
06:00+9sse227789 0.0 101641
09:00+13nnw2268100 0.1 1016297
12:00+17nw2448100 0.0 10131258
15:00+18nw354697 0.4 10121626
18:00+15nne1270100 0.5 101345
21:00+11s1173100 0.5 101423
20 april, tue
tue2000:00+10s3373100 0.0 101358
03:00+10sse3377100 0.0 101060
06:00+12sse3465100 0.0 100674
09:00+20sse41539100 0.0 10041975
12:00+18s61452100 1.3 10061315
15:00+16sse486394 5.8 1005861
18:00+13wsw248072 3.2 1008217
21:00+10s009487 4.1 101121
21 april, wed
wed2100:00+7nne239586 0.1 1013207
03:00+6ene11938 0.1 101447
06:00+6e119157 0.3 101696
09:00+9n328299 0.4 1016692
12:00+7n3396100 0.3 1018431
15:00+5nnw2298100 0.6 1021510
18:00+5nnw1198100 0.2 1021516
21:00+5nw1197100 0.3 1022311
22 april, thu
thu2200:00+5nw0197100 0.3 1022232
03:00+4s0096100 0.6 102116
06:00+5nne0096100 0.1 102171
09:00+6nnw1191100 0.2 1021330
12:00+7nne128799 0.3 1021524
15:00+8e117987 0.8 1021719
18:00+6nw2499100 1.6 1023370
21:00+5ssw119399 2.6 1024106